User: anonymous   Login
Location: Unspecified
(0.0000°N, 0.0000°E)
Time: 15:36:59
(UTC+00:00)
Language:

USA 268 - Orbit

View from above orbital plane
View from above orbital plane
View from above satellite
View from above satellite

Ground track
Ground track

The orbit data is extracted from the following two-line orbital elements,

1 41584U 16036A   17221.80330147 0.00000000  00000-0  00000-0 0    00
2 41584   7.3010 352.6189 0048916  48.3033 312.1368  1.00270000    02
Epoch (UTC): 09 August 2017 19:16:45
Eccentricity: 0.0048916
inclination: 7.3010°
perigee height: 35580 km
apogee height: 35993 km
right ascension of ascending node: 352.6189°
argument of perigee: 48.3033°
revolutions per day: 1.00270000
mean anomaly at epoch: 312.1368°
orbit number at epoch: 0

The dashed part of the orbit path shows where the satellite is in the earth's shadow,  

DLR